Location: Bailleul
(50.3375°N, 2.8513°E)
Time: 19:10:42
(UTC+00:00)

Daily predictions for brighter satellites

Satellite Brightness Start Highest point End
(mag) Time Altitude Azimuth Time Altitude Azimuth Time Altitude Azimuth
BREEZE-M DEB (TANK) 3.6 20:40:52 10° SSW 20:42:59 23° SE 20:46:31 10° E
Cosmos 2285 Rocket 4.1 20:38:55 10° SSW 20:45:21 79° ESE 20:51:49 10° NNE
Okean 2 3.7 20:42:55 10° SSW 20:46:59 69° W 20:51:05 10° N
Meteor 2-20 4.5 20:43:56 10° S 20:50:02 84° E 20:56:09 10° NNE
Cosmos 1908 3.8 20:46:38 10° N 20:50:23 43° ENE 20:54:06 10° SSE
Cosmos 292 Rocket 3.8 20:46:07 10° SSW 20:50:56 74° ESE 20:55:46 10° NNE
Cosmos 2263 Rocket 3.5 20:49:03 10° NW 20:54:11 36° WSW 20:59:18 10° S
Lacrosse 5 rocket 2.8 20:52:39 10° SSE 20:54:31 14° SE 20:56:22 10° E
SPOT 5 3.2 20:53:39 10° SSE 20:58:43 60° ENE 21:03:34 10° N
Cosmos 1707 3.0 20:56:49 10° SSW 21:00:40 71° WNW 21:04:35 10° N
DNEPR-1 R/B 4.5 20:57:25 10° NNW 21:01:27 40° NE 21:05:31 10° ESE
Cosmos 1452 Rocket 3.5 20:57:24 10° SSW 21:02:39 70° ESE 21:07:55 10° NNE
Cosmos 1459 Rocket 4.0 21:02:11 10° N 21:08:16 72° E 21:14:18 10° SSE
In-Cosmos 22 4.1 21:03:12 10° S 21:08:29 84° ESE 21:13:49 10° NNE
Resurs 01 Rocket 3.3 21:06:37 10° SSW 21:10:29 30° W 21:14:23 10° NNW
Cosmos 1850 Rocket 4.2 21:05:11 10° NNW 21:10:31 75° WSW 21:15:45 10° SSE
Terra 2.2 21:06:10 10° SE 21:10:48 54° ENE 21:15:28 10° N
Cosmos 1953 2.3 21:06:55 10° N 21:11:00 82° ENE 21:15:04 10° SSE
Lacrosse 5 3.1 21:07:01 10° WNW 21:11:27 31° SW 21:15:53 10° SSE
SPOT 1/Viking Rocket 4.1 21:06:26 10° S 21:11:29 57° W 21:16:33 10° NNW
Cosmos 2333 Rocket 3.3 21:09:17 10° SSE 21:13:55 26° ESE 21:18:33 10° NE
Cosmos 1025 Rocket 3.5 21:10:17 10° SSE 21:14:27 44° E 21:18:37 10° NNE
CARTOSAT-1 3.7 21:11:25 10° S 21:15:43 73° WSW 21:20:03 10° NNW
NOSS 3-2 (A) 4.4 21:12:32 10° WSW 21:18:15 55° NW 21:24:56 10° NE
NOSS 3-2 (C) 3.7 21:12:51 10° SW 21:18:37 77° NW 21:25:21 10° NE
Geosat 4.3 21:15:10 10° SSE 21:20:08 61° WSW 21:25:09 10° NW
SL-14 R/B 4.3 21:17:35 12° SSE 21:20:51 32° E 21:24:28 10° NNE
FALCON 9 DEB 3.8 21:18:51 10° SSW 21:21:55 31° SE 21:25:00 10° E
Spot 2 Rocket 3.9 21:18:30 10° S 21:23:30 61° WSW 21:28:33 10° NNW
Cosmos 2061 Rocket 4.3 21:17:24 10° N 21:23:49 63° ENE 21:29:43 12° SSE
Cosmos 1975 Rocket 3.1 21:19:57 10° SSW 21:24:18 83° W 21:28:44 10° N
Cosmos 1844 3.7 21:19:39 10° NNW 21:25:16 86° ENE 21:30:18 13° SSE
ATLAS 3B R/B 3.3 21:19:51 10° S 21:25:31 32° ESE 21:31:20 10° NE
Meteor 2-11 Rocket 4.5 21:21:16 10° N 21:27:27 87° E 21:33:25 11° S
Cosmos 1461 3.1 21:23:21 10° NW 21:27:35 65° SW 21:30:58 14° SSE
Cosmos 1331 Rocket 4.2 21:23:34 10° S 21:28:39 55° ESE 21:33:49 10° NNE
Cosmos 2219 Rocket 3.2 21:24:39 11° SSE 21:29:05 28° ESE 21:33:52 10° NE
ERS-1 Rocket 3.1 21:24:38 10° S 21:29:41 77° WSW 21:34:45 10° NNW
Cosmos 1626 2.2 21:27:13 11° S 21:30:43 60° E 21:34:23 10° NNE
Aureole 1 Rocket 4.1 21:28:03 10° NNW 21:33:38 77° WSW 21:40:17 12° SSE
SL-23 DEB 4.5 21:33:15 10° W 21:37:06 78° N 21:43:39 10° E
SL-8 R/B 4.0 21:33:19 10° W 21:37:57 49° SSW 21:41:58 13° SE
BREEZE-M DEB (TANK) 3.4 21:35:06 10° WNW 21:38:02 25° SW 21:39:07 17° S
Cosmos 2123 Rocket 4.1 21:34:03 10° S 21:40:14 63° E 21:46:30 10° NNE
BREEZE-M DEB (TANK) 2.6 21:38:06 10° SSW 21:40:32 32° SE 21:45:11 10° ENE
KORONAS-FOTON 4.4 21:37:43 10° SSW 21:41:28 57° WNW 21:45:13 10° N
ATLAS CENTAUR R/B 1.6 21:38:25 10° NW 21:42:43 77° NE 21:46:25 15° SE
Cosmos 2237 Rocket 4.1 21:42:42 10° ESE 21:44:34 12° E 21:46:26 10° ENE
USA 215 3.8 21:38:42 10° ENE 21:44:37 35° SE 21:50:31 10° SSW
Cosmos 1867 4.3 21:41:31 10° NW 21:46:53 50° NE 21:52:12 10° ESE
Cosmos 2233 Rocket 4.3 21:42:00 10° N 21:48:04 57° ENE 21:53:01 16° SSE
ARIANE 5 R/B 3.8 21:44:03 10° SSW 21:48:10 38° W 21:52:23 10° NNW
SL-16 R/B 3.2 21:43:40 10° SW 21:49:11 50° NW 21:54:44 10° NNE
Cosmos 2360 Rocket 2.2 21:44:52 10° SSW 21:50:32 89° ESE 21:56:14 10° NNE
Cosmos 2322 Rocket 2.9 21:46:19 10° SW 21:51:56 59° NW 21:57:36 10° NNE
Centaur D AC-29 4.2 21:35:13 10° WSW 21:54:00 19° SW 21:59:43 11° S
Cosmos 1455 4.0 21:57:15 10° NNE 22:00:13 21° ENE 22:02:38 12° ESE
Cosmos 389 Rocket 3.6 21:58:26 10° N 22:01:33 32° ENE 22:03:30 18° SE
Cosmos 1674 4.2 21:58:47 10° SW 22:02:11 33° WNW 22:05:36 10° N
Cosmos 1544 Rocket 4.4 22:00:24 10° NNW 22:04:40 46° W 22:08:31 12° SSW
COSMOS 2428 3.2 22:01:02 15° S 22:05:24 43° ESE 22:10:48 10° NE
H-2A R/B 3.4 22:01:44 10° NNE 22:05:51 89° W 22:09:25 13° SSW
CENTAUR R/B 3.9 21:59:56 10° WSW 22:06:01 47° NNW 22:13:18 10° NE
Cosmos 1300 2.7 22:04:14 10° NNW 22:08:04 76° W 22:10:36 20° S
Cosmos 2322 3.7 22:02:44 10° SSW 22:08:18 63° ESE 22:13:54 10° NE
Cosmos 1606 Rocket 4.2 22:05:19 10° N 22:09:38 44° ENE 22:12:29 19° SE
Cosmos 2016 Rocket 4.3 22:04:41 10° NNW 22:10:42 61° W 22:16:04 13° S
Cosmos 2278 Rocket 2.8 22:08:13 10° NNW 22:13:45 51° NE 22:18:27 14° SE
SJ 16-02 4.1 22:13:32 10° NNE 22:14:37 11° NE 22:15:43 10° ENE
ALOS 2 4.0 22:11:49 14° ESE 22:14:55 29° ENE 22:18:44 10° N
Cosmos 1486 Rocket 4.1 22:11:53 10° NNW 22:17:07 69° ENE 22:20:48 19° SE
USA 267 3.4 22:13:31 10° ESE 22:20:04 81° NNE 22:26:39 10° WNW
Cosmos 1346 Rocket 3.3 22:19:17 23° SSE 22:21:22 44° E 22:25:13 10° NNE
Cosmos 1725 Rocket 4.4 22:16:03 10° NNW 22:22:06 59° W 22:27:17 14° SSW
Cosmos 1844 Rocket 4.0 22:20:10 10° NW 22:25:06 31° WSW 22:29:19 13° SSW
Meteor 2-5 Rocket 3.7 22:24:44 14° SSW 22:29:35 82° WNW 22:35:14 10° N
Cosmos 1340 3.5 22:26:35 12° SSW 22:29:57 46° WNW 22:33:38 10° N
Cosmos 968 Rocket 3.5 22:25:05 10° NNW 22:30:12 76° WSW 22:33:31 22° SSE
Lacrosse 5 rocket 0.8 22:29:26 10° SW 22:33:04 78° SE 22:36:39 10° ENE
Cosmos 405 4.4 22:30:43 10° NNW 22:33:44 29° W 22:35:50 16° SW
Cosmos 1992 Rocket 4.4 22:32:39 22° SSE 22:35:41 46° ESE 22:40:41 10° NE
Cosmos 1184 Rocket 4.3 22:38:30 20° ESE 22:39:18 22° E 22:41:55 10° NE
Cosmos 1536 Rocket 4.4 22:35:24 12° SSW 22:39:24 49° WNW 22:43:44 10° N
GEOS 3 Rocket 3.8 22:36:02 21° SSE 22:39:34 62° SW 22:44:53 10° NW
Cosmos 1607 4.2 22:35:56 10° NW 22:42:23 70° NE 22:47:53 14° SE
Terra 3.7 22:45:12 10° SW 22:48:52 22° W 22:52:35 10° NW
Cosmos 1980 4.3 22:50:46 23° SSE 22:53:47 42° ESE 22:59:06 10° NE
FALCON 9 DEB 3.2 22:56:14 41° SSE 22:56:27 41° SSE 22:59:26 10° ENE
Cosmos 2333 Rocket 2.6 22:52:04 10° SW 22:57:46 64° WNW 23:03:29 10° NNE
Cosmos 1943 Rocket 3.8 22:53:06 10° NNW 22:57:51 28° NE 23:02:34 10° ESE
FALCON 9 DEB 3.3 22:55:13 10° WSW 22:58:38 73° NNW 23:02:03 10° ENE
Cosmos 2228 3.6 22:54:36 10° NNW 22:58:54 52° W 23:01:23 23° SSW
BREEZE-M DEB (TANK) 3.3 22:57:02 10° SW 23:04:53 38° SSE 23:07:51 10° E
Cosmos 2034 Rocket 4.3 22:59:10 10° N 23:05:18 59° ENE 23:09:25 21° SSE
Okean 1-7 Rocket 4.1 23:06:13 26° SSE 23:08:19 47° E 23:12:36 10° NNE
Cosmos 2219 Rocket 2.8 23:07:07 10° SW 23:12:42 58° NW 23:18:20 10° NNE
SAR-Lupe-2 4.3 23:11:02 10° NNE 23:14:25 39° E 23:15:31 30° SE
Uosat 12 SS-18 rocket 4.2 23:10:43 14° SW 23:14:29 87° NW 23:19:43 10° NE
ATLAS 3B R/B 2.9 23:09:11 10° SW 23:15:44 70° NW 23:22:35 10° NE
Meteor 2-10 Rocket 4.4 23:11:10 10° NNW 23:15:52 38° W 23:18:55 19° SSW
Cosmos 1503 Rocket 4.1 23:10:55 10° NNW 23:16:17 70° WSW 23:19:20 26° S
FALCON 9 DEB 2.7 23:16:34 19° WSW 23:18:37 74° SSE 23:21:43 10° ENE
FALCON 9 DEB 2.7 23:19:50 32° SW 23:21:04 64° SSE 23:24:10 10° ENE
ATLAS CENTAUR R/B 3.3 23:18:11 10° WNW 23:21:11 18° WSW 23:22:33 16° SW
SL-16 R/B 3.5 23:20:20 19° SE 23:22:47 25° ESE 23:27:19 10° NE
Cosmos 2058 Rocket 3.1 23:18:56 10° NNW 23:23:24 72° W 23:25:34 29° S
Iridium 2 4.3 23:22:59 24° SW 23:24:52 47° W 23:28:31 10° N
Cosmos 2237 Rocket 2.2 23:24:07 24° SSW 23:27:33 68° ESE 23:33:09 10° NNE
FALCON 9 DEB 2.7 23:25:34 18° WSW 23:27:43 80° SSE 23:30:49 10° ENE
USA 215 3.3 23:21:33 10° ENE 23:28:07 89° NNW 23:34:41 10° WSW
ATLAS CENTAUR R/B 3.8 23:25:37 24° S 23:28:57 48° ESE 23:41:30 10° NE
Cosmos 1867 4.3 23:25:20 10° NW 23:30:24 39° WSW 23:32:53 25° SSW
Tsikada Rocket 4.4 23:28:42 23° SSE 23:32:27 52° E 23:38:25 10° NNE
Thor Agena Rocket 4.0 23:28:35 10° NNE 23:33:44 50° E 23:36:27 26° SSE
GP-B 3.8 23:30:32 10° NNE 23:34:49 44° E 23:37:02 25° SE
Cosmos 2360 Rocket 4.4 23:30:52 10° W 23:35:18 23° NW 23:39:47 10° NNE
Cosmos 1455 3.1 23:32:23 10° NNW 23:35:57 37° W 23:37:30 25° SW
Cosmos 389 Rocket 4.4 23:33:33 10° NW 23:35:59 18° W 23:37:17 15° WSW
Cosmos 2369 Rocket 3.9 23:31:28 10° NNW 23:36:30 30° NE 23:41:31 10° ESE
Meteor 1-21 Rocket 4.2 23:39:34 24° SSW 23:43:02 84° W 23:48:49 10° NNE
Meteor 1-4 Rocket 2.4 23:40:07 10° N 23:43:38 78° ENE 23:44:52 38° SSE
Cosmos 724 4.5 23:38:22 10° NW 23:44:37 78° NE 23:50:00 14° SE
COSMOS 2428 3.9 23:44:19 10° WSW 23:49:44 41° NW 23:55:11 10° NNE
NOSS 0 Rocket 4.1 23:45:23 15° SW 23:50:35 73° WNW 23:56:52 10° NNE
ALOS 2 3.5 23:49:12 24° SW 23:51:09 36° W 23:55:15 10° NNW
SJ 16-02 1.8 23:49:52 10° NNW 23:54:13 58° ENE 23:57:00 21° SE
